When you browse on this site, cookies collect data to enhance your experience and personalize the content and advertising you see.
Visit our Privacy Policy to learn more. By continuing to use the site, you agree to this use of cookies and data.
  • In Schweiz
  • Länderverzeichnis
  • Für 7 Tage
  • Wassertemperatur
  • Wetterkarte
  • Widgets
  • user-avatar
    Anmelden

    Stündliche Wetter Viedma

    Heute, 15 November, Freitag

    Zeit Temperatur Niederschläge Wind Luftdruck Luftfeuchtigkeit
    00:00 +15°C° 0 mm 5 m/S 755 mmHg 51%
    01:00 +15°C° 0 mm 5 m/S 754 mmHg 51%
    02:00 +15°C° 0 mm 5 m/S 754 mmHg 51%
    03:00 +15°C° 0 mm 5 m/S 753 mmHg 48%
    04:00 +15°C° 0 mm 5 m/S 753 mmHg 45%
    05:00 +16°C° 0 mm 6 m/S 753 mmHg 42%
    06:00 +18°C° 0 mm 7 m/S 752 mmHg 37%
    07:00 +22°C° 0 mm 8 m/S 752 mmHg 32%
    08:00 +26°C° 0 mm 9 m/S 752 mmHg 28%
    09:00 +28°C° 0 mm 10 m/S 752 mmHg 26%
    10:00 +31°C° 0 mm 11 m/S 751 mmHg 25%
    11:00 +33°C° 0 mm 11 m/S 751 mmHg 23%
    12:00 +33°C° 0 mm 10 m/S 750 mmHg 24%
    13:00 +33°C° 0 mm 9 m/S 750 mmHg 24%
    14:00 +33°C° 0 mm 8 m/S 749 mmHg 24%
    15:00 +33°C° 0 mm 9 m/S 749 mmHg 25%
    16:00 +32°C° 0 mm 9 m/S 749 mmHg 25%
    17:00 +32°C° 0 mm 10 m/S 749 mmHg 26%
    18:00 +28°C° 0 mm 8 m/S 749 mmHg 33%
    19:00 +25°C° 0 mm 5 m/S 750 mmHg 39%
    20:00 +21°C° 0 mm 3 m/S 751 mmHg 46%
    21:00 +20°C° 0 mm 3 m/S 751 mmHg 46%
    22:00 +20°C° 0 mm 3 m/S 751 mmHg 46%
    23:00 +19°C° 0 mm 2 m/S 752 mmHg 46%

    Morgen, 16 November, Samstag

    Zeit Temperatur Niederschläge Wind Luftdruck Luftfeuchtigkeit
    00:00 +18°C° 0 mm 2 m/S 752 mmHg 47%
    01:00 +17°C° 0 mm 2 m/S 752 mmHg 48%
    02:00 +16°C° 0 mm 2 m/S 752 mmHg 49%
    03:00 +16°C° 0 mm 3 m/S 752 mmHg 49%
    04:00 +14°C° 0 mm 3 m/S 753 mmHg 49%
    05:00 +14°C° 0 mm 4 m/S 753 mmHg 50%
    06:00 +18°C° 0 mm 4 m/S 754 mmHg 40%
    07:00 +20°C° 0 mm 4 m/S 754 mmHg 31%
    08:00 +23°C° 0 mm 4 m/S 754 mmHg 21%
    09:00 +25°C° 0 mm 3 m/S 754 mmHg 20%
    10:00 +25°C° 0 mm 3 m/S 754 mmHg 18%
    11:00 +26°C° 0 mm 2 m/S 754 mmHg 16%
    12:00 +27°C° 0 mm 3 m/S 753 mmHg 16%
    13:00 +28°C° 0 mm 3 m/S 753 mmHg 15%
    14:00 +29°C° 0 mm 4 m/S 753 mmHg 15%
    15:00 +27°C° 0 mm 5 m/S 752 mmHg 17%
    16:00 +26°C° 0 mm 6 m/S 752 mmHg 20%
    17:00 +24°C° 0 mm 7 m/S 751 mmHg 23%
    18:00 +22°C° 0 mm 7 m/S 751 mmHg 31%
    19:00 +20°C° 0 mm 8 m/S 751 mmHg 38%
    20:00 +17°C° 0 mm 8 m/S 751 mmHg 46%
    21:00 +17°C° 0 mm 8 m/S 750 mmHg 49%
    22:00 +17°C° 0 mm 8 m/S 750 mmHg 52%
    23:00 +17°C° 0 mm 7 m/S 750 mmHg 54%

    übermorgen, 17 November, Sonntag

    Zeit Temperatur Niederschläge Wind Luftdruck Luftfeuchtigkeit
    00:00 +17°C° 0 mm 7 m/S 750 mmHg 50%
    01:00 +19°C° 0 mm 6 m/S 750 mmHg 46%
    02:00 +19°C° 0 mm 6 m/S 750 mmHg 42%
    03:00 +17°C° 0 mm 5 m/S 750 mmHg 41%
    04:00 +18°C° 0 mm 4 m/S 750 mmHg 40%
    05:00 +17°C° 0 mm 4 m/S 750 mmHg 40%
    06:00 +19°C° 0 mm 5 m/S 751 mmHg 35%
    07:00 +21°C° 0 mm 6 m/S 751 mmHg 29%
    08:00 +23°C° 0 mm 7 m/S 752 mmHg 24%
    09:00 +23°C° 0 mm 7 m/S 752 mmHg 24%
    10:00 +24°C° 0 mm 7 m/S 752 mmHg 23%
    11:00 +26°C° 0 mm 7 m/S 752 mmHg 22%
    12:00 +27°C° 0 mm 7 m/S 752 mmHg 21%
    13:00 +27°C° 0 mm 6 m/S 752 mmHg 20%
    14:00 +28°C° 0 mm 6 m/S 752 mmHg 19%
    15:00 +28°C° 0 mm 6 m/S 752 mmHg 19%
    16:00 +28°C° 0 mm 7 m/S 752 mmHg 20%
    17:00 +28°C° 0 mm 7 m/S 751 mmHg 20%
    18:00 +26°C° 0 mm 6 m/S 752 mmHg 23%
    19:00 +25°C° 0 mm 5 m/S 752 mmHg 26%
    20:00 +23°C° 0 mm 4 m/S 752 mmHg 28%
    21:00 +22°C° 0 mm 4 m/S 752 mmHg 30%
    22:00 +21°C° 0 mm 4 m/S 753 mmHg 33%
    23:00 +20°C° 0 mm 4 m/S 753 mmHg 35%

    18 November, Montag

    Zeit Temperatur Niederschläge Wind Luftdruck Luftfeuchtigkeit
    00:00 +19°C° 0 mm 5 m/S 754 mmHg 37%
    01:00 +17°C° 0 mm 5 m/S 754 mmHg 38%
    02:00 +16°C° 0 mm 5 m/S 754 mmHg 40%
    03:00 +16°C° 0 mm 5 m/S 755 mmHg 43%
    04:00 +15°C° 0 mm 5 m/S 756 mmHg 47%
    05:00 +14°C° 0 mm 4 m/S 756 mmHg 50%
    06:00 +15°C° 0 mm 5 m/S 757 mmHg 43%
    07:00 +17°C° 0 mm 6 m/S 758 mmHg 36%
    08:00 +20°C° 0 mm 7 m/S 758 mmHg 29%
    09:00 +20°C° 0 mm 6 m/S 759 mmHg 27%
    10:00 +21°C° 0 mm 5 m/S 759 mmHg 26%
    11:00 +22°C° 0 mm 5 m/S 759 mmHg 24%
    12:00 +23°C° 0 mm 5 m/S 759 mmHg 23%
    13:00 +25°C° 0 mm 4 m/S 758 mmHg 21%
    14:00 +26°C° 0 mm 4 m/S 758 mmHg 20%
    15:00 +25°C° 0 mm 4 m/S 758 mmHg 22%
    16:00 +25°C° 0 mm 4 m/S 757 mmHg 23%
    17:00 +23°C° 0 mm 4 m/S 757 mmHg 25%
    18:00 +21°C° 0 mm 5 m/S 757 mmHg 29%
    19:00 +19°C° 0 mm 6 m/S 757 mmHg 34%
    20:00 +15°C° 0 mm 7 m/S 757 mmHg 38%
    21:00 +15°C° 0 mm 7 m/S 757 mmHg 40%
    22:00 +15°C° 0 mm 6 m/S 757 mmHg 43%
    23:00 +15°C° 0 mm 6 m/S 757 mmHg 45%

    19 November, Dienstag

    Zeit Temperatur Niederschläge Wind Luftdruck Luftfeuchtigkeit
    00:00 +15°C° 0 mm 6 m/S 757 mmHg 47%
    01:00 +14°C° 0 mm 6 m/S 757 mmHg 49%
    02:00 +14°C° 0 mm 6 m/S 756 mmHg 52%
    03:00 +14°C° 0 mm 6 m/S 756 mmHg 50%
    04:00 +14°C° 0 mm 6 m/S 756 mmHg 48%
    05:00 +14°C° 0 mm 5 m/S 756 mmHg 45%
    06:00 +17°C° 0 mm 6 m/S 756 mmHg 39%
    07:00 +20°C° 0 mm 7 m/S 756 mmHg 33%
    08:00 +23°C° 0 mm 8 m/S 755 mmHg 27%
    09:00 +26°C° 0 mm 9 m/S 755 mmHg 24%
    10:00 +29°C° 0 mm 9 m/S 754 mmHg 20%
    11:00 +32°C° 0 mm 9 m/S 754 mmHg 16%
    12:00 +33°C° 0 mm 10 m/S 753 mmHg 15%
    13:00 +36°C° 0 mm 10 m/S 752 mmHg 13%
    14:00 +37°C° 0 mm 10 m/S 751 mmHg 12%
    15:00 +37°C° 0 mm 10 m/S 750 mmHg 14%
    16:00 +37°C° 0 mm 10 m/S 749 mmHg 15%
    17:00 +37°C° 0 mm 10 m/S 748 mmHg 17%
    18:00 +33°C° 0.4 mm 9 m/S 747 mmHg 27%
    19:00 +28°C° 0.4 mm 8 m/S 747 mmHg 37%
    20:00 +24°C° 0.4 mm 7 m/S 747 mmHg 47%
    21:00 +24°C° 0 mm 7 m/S 748 mmHg 44%
    22:00 +24°C° 0 mm 6 m/S 749 mmHg 41%
    23:00 +26°C° 0 mm 6 m/S 749 mmHg 38%

    20 November, Mittwoch

    Zeit Temperatur Niederschläge Wind Luftdruck Luftfeuchtigkeit
    00:00 +22°C° 0 mm 5 m/S 750 mmHg 43%
    01:00 +20°C° 0 mm 4 m/S 751 mmHg 48%
    02:00 +18°C° 0 mm 3 m/S 752 mmHg 53%
    03:00 +18°C° 0 mm 3 m/S 752 mmHg 52%
    04:00 +17°C° 0 mm 4 m/S 753 mmHg 50%
    05:00 +17°C° 0 mm 4 m/S 754 mmHg 48%
    06:00 +18°C° 0 mm 4 m/S 754 mmHg 40%
    07:00 +19°C° 0 mm 5 m/S 755 mmHg 32%
    08:00 +20°C° 0 mm 5 m/S 755 mmHg 24%
    09:00 +21°C° 0 mm 5 m/S 756 mmHg 22%
    10:00 +22°C° 0 mm 4 m/S 756 mmHg 21%
    11:00 +22°C° 0 mm 4 m/S 756 mmHg 19%
    12:00 +23°C° 0 mm 4 m/S 756 mmHg 19%
    13:00 +25°C° 0 mm 4 m/S 756 mmHg 18%
    14:00 +25°C° 0 mm 4 m/S 755 mmHg 17%
    15:00 +23°C° 0 mm 5 m/S 755 mmHg 19%
    16:00 +22°C° 0 mm 6 m/S 755 mmHg 21%
    17:00 +20°C° 0 mm 8 m/S 755 mmHg 23%
    18:00 +18°C° 0 mm 7 m/S 755 mmHg 29%
    19:00 +16°C° 0 mm 7 m/S 755 mmHg 34%
    20:00 +15°C° 0 mm 7 m/S 755 mmHg 39%
    21:00 +15°C° 0 mm 7 m/S 755 mmHg 41%
    22:00 +15°C° 0 mm 8 m/S 756 mmHg 43%
    23:00 +15°C° 0 mm 8 m/S 756 mmHg 45%
    Mehr zeigen